Time,TemperatureF,DewpointF,PressureIn,WindDirection,WindDirectionDegrees,WindSpeedMPH,WindSpeedGustMPH,Humidity,HourlyPrecipIn,Conditions,Clouds,dailyrainin,SoftwareType,DateUTC
2013-02-07 00:00:00,22.0,19.5,30.07,NNW,342,0.0,0.0,90,0.00,,---,0.00,VWS V14.01,2013-02-07 06:00:00,
2013-02-07 00:05:00,21.7,19.0,30.07,NNW,342,0.0,0.0,89,0.00,,---,0.00,VWS V14.01,2013-02-07 06:05:00,
2013-02-07 00:10:00,21.3,18.6,30.07,NNW,343,0.0,0.0,89,0.00,,---,0.00,VWS V14.01,2013-02-07 06:10:00,
2013-02-07 00:15:00,21.1,18.4,30.07,NNW,335,1.0,1.0,89,0.00,,---,0.00,VWS V14.01,2013-02-07 06:15:00,
2013-02-07 00:20:00,21.4,18.9,30.07,NNW,336,0.0,1.0,90,0.00,,---,0.00,VWS V14.01,2013-02-07 06:20:00,
2013-02-07 00:25:00,21.5,19.0,30.07,NNW,336,0.0,1.0,90,0.00,,---,0.00,VWS V14.01,2013-02-07 06:25:00,
2013-02-07 00:30:00,21.4,18.9,30.07,NNW,336,0.0,0.0,90,0.00,,---,0.00,VWS V14.01,2013-02-07 06:30:00,
2013-02-07 00:35:00,21.3,18.8,30.07,NNW,333,0.0,0.0,90,0.00,,---,0.00,VWS V14.01,2013-02-07 06:35:00,
2013-02-07 00:40:00,21.6,19.4,30.08,North,2,0.0,3.0,91,0.00,,---,0.00,VWS V14.01,2013-02-07 06:40:00,
2013-02-07 00:45:00,21.6,19.1,30.08,North,2,0.0,0.0,90,0.00,,---,0.00,VWS V14.01,2013-02-07 06:45:00,
2013-02-07 00:50:00,21.5,19.0,30.08,North,2,0.0,0.0,90,0.00,,---,0.00,VWS V14.01,2013-02-07 06:50:00,
2013-02-07 00:55:00,21.7,19.5,30.08,NNE,17,0.0,2.0,91,0.00,,---,0.00,VWS V14.01,2013-02-07 06:55:00,
2013-02-07 01:00:00,21.7,19.5,30.08,NNW,335,1.0,1.0,91,0.00,,---,0.00,VWS V14.01,2013-02-07 07:00:00,
2013-02-07 01:05:00,22.0,19.8,30.08,NNW,333,0.0,3.0,91,0.00,,---,0.00,VWS V14.01,2013-02-07 07:05:00,
2013-02-07 01:10:00,22.3,20.1,30.09,NW,312,1.0,3.0,91,0.00,,---,0.00,VWS V14.01,2013-02-07 07:10:00,
2013-02-07 01:15:00,22.7,20.5,30.08,North,353,0.0,1.0,91,0.00,,---,0.00,VWS V14.01,2013-02-07 07:15:00,
2013-02-07 01:20:00,23.1,20.9,30.08,NNW,348,1.0,4.0,91,0.00,,---,0.00,VWS V14.01,2013-02-07 07:20:00,
2013-02-07 01:25:00,23.5,21.3,30.08,NNW,329,0.0,5.0,91,0.00,,---,0.00,VWS V14.01,2013-02-07 07:25:00,
2013-02-07 01:30:00,23.7,21.5,30.08,North,356,1.0,3.0,91,0.00,,---,0.00,VWS V14.01,2013-02-07 07:30:00,
2013-02-07 01:35:00,23.9,21.4,30.08,NNW,333,1.0,3.0,90,0.00,,---,0.00,VWS V14.01,2013-02-07 07:35:00,
2013-02-07 01:40:00,24.2,21.7,30.08,NNW,343,0.0,3.0,90,0.00,,---,0.00,VWS V14.01,2013-02-07 07:40:00,
2013-02-07 01:45:00,24.3,21.8,30.08,North,351,2.0,3.0,90,0.00,,---,0.00,VWS V14.01,2013-02-07 07:45:00,
2013-02-07 01:50:00,24.5,22.0,30.08,North,353,1.0,3.0,90,0.00,,---,0.00,VWS V14.01,2013-02-07 07:50:00,
2013-02-07 01:55:00,24.7,22.2,30.08,North,3,0.0,3.0,90,0.00,,---,0.00,VWS V14.01,2013-02-07 07:55:00,
2013-02-07 02:00:00,24.8,22.3,30.08,NNW,345,1.0,2.0,90,0.00,,---,0.00,VWS V14.01,2013-02-07 08:00:00,
2013-02-07 02:05:00,25.0,22.5,30.09,North,360,0.0,4.0,90,0.00,,---,0.00,VWS V14.01,2013-02-07 08:05:00,
2013-02-07 02:10:00,25.2,22.7,30.09,NNW,343,0.0,4.0,90,0.00,,---,0.00,VWS V14.01,2013-02-07 08:10:00,
2013-02-07 02:15:00,25.3,22.8,30.09,NNE,13,1.0,2.0,90,0.00,,---,0.00,VWS V14.01,2013-02-07 08:15:00,
2013-02-07 02:20:00,25.5,23.0,30.09,North,10,0.0,2.0,90,0.00,,---,0.00,VWS V14.01,2013-02-07 08:20:00,
2013-02-07 02:25:00,25.6,23.1,30.09,North,6,0.0,2.0,90,0.00,,---,0.00,VWS V14.01,2013-02-07 08:25:00,
2013-02-07 02:30:00,25.7,23.2,30.10,NNW,345,0.0,0.0,90,0.00,,---,0.00,VWS V14.01,2013-02-07 08:30:00,
2013-02-07 02:35:00,25.7,23.2,30.09,North,352,0.0,3.0,90,0.00,,---,0.00,VWS V14.01,2013-02-07 08:35:00,
2013-02-07 02:40:00,25.8,23.3,30.09,North,352,2.0,4.0,90,0.00,,---,0.00,VWS V14.01,2013-02-07 08:40:00,
2013-02-07 02:45:00,25.9,23.1,30.09,NNE,17,1.0,4.0,89,0.00,,---,0.00,VWS V14.01,2013-02-07 08:45:00,
2013-02-07 02:50:00,26.0,23.2,30.09,NNW,342,1.0,4.0,89,0.00,,---,0.00,VWS V14.01,2013-02-07 08:50:00,
2013-02-07 02:55:00,26.0,23.2,30.09,North,1,2.0,4.0,89,0.00,,---,0.00,VWS V14.01,2013-02-07 08:55:00,
2013-02-07 03:00:00,26.1,23.3,30.09,NNW,345,1.0,3.0,89,0.00,,---,0.00,VWS V14.01,2013-02-07 09:00:00,
2013-02-07 03:05:00,26.1,23.3,30.09,NNW,348,1.0,3.0,89,0.00,,---,0.00,VWS V14.01,2013-02-07 09:05:00,
2013-02-07 03:10:00,26.1,23.3,30.09,NW,325,2.0,3.0,89,0.00,,---,0.00,VWS V14.01,2013-02-07 09:10:00,
2013-02-07 03:15:00,26.1,23.3,30.09,North,7,2.0,2.0,89,0.00,,---,0.00,VWS V14.01,2013-02-07 09:15:00,
2013-02-07 03:20:00,26.1,23.3,30.09,North,7,0.0,2.0,89,0.00,,---,0.00,VWS V14.01,2013-02-07 09:20:00,
2013-02-07 03:25:00,26.1,23.3,30.09,NNW,332,0.0,2.0,89,0.00,,---,0.00,VWS V14.01,2013-02-07 09:25:00,
2013-02-07 03:30:00,26.2,23.4,30.09,NNE,19,1.0,4.0,89,0.00,,---,0.00,VWS V14.01,2013-02-07 09:30:00,
2013-02-07 03:35:00,26.2,23.4,30.09,North,353,1.0,4.0,89,0.00,,---,0.00,VWS V14.01,2013-02-07 09:35:00,
2013-02-07 03:40:00,26.2,23.4,30.09,North,352,0.0,4.0,89,0.00,,---,0.00,VWS V14.01,2013-02-07 09:40:00,
2013-02-07 03:45:00,26.2,23.4,30.10,North,359,0.0,2.0,89,0.00,,---,0.00,VWS V14.01,2013-02-07 09:45:00,
2013-02-07 03:50:00,26.2,23.4,30.10,NNE,16,2.0,4.0,89,0.00,,---,0.00,VWS V14.01,2013-02-07 09:50:00,
2013-02-07 03:55:00,26.2,23.4,30.09,NNW,342,1.0,4.0,89,0.00,,---,0.00,VWS V14.01,2013-02-07 09:55:00,
2013-02-07 04:00:00,26.3,23.5,30.09,North,352,1.0,2.0,89,0.00,,---,0.00,VWS V14.01,2013-02-07 10:00:00,
2013-02-07 04:05:00,26.3,23.2,30.09,North,351,1.0,2.0,88,0.00,,---,0.00,VWS V14.01,2013-02-07 10:05:00,
2013-02-07 04:10:00,26.2,23.1,30.10,North,353,2.0,3.0,88,0.00,,---,0.00,VWS V14.01,2013-02-07 10:10:00,
2013-02-07 04:15:00,26.3,23.2,30.10,North,360,1.0,1.0,88,0.00,,---,0.00,VWS V14.01,2013-02-07 10:15:00,
2013-02-07 04:20:00,26.2,23.1,30.10,NNW,333,1.0,4.0,88,0.00,,---,0.00,VWS V14.01,2013-02-07 10:20:00,
2013-02-07 04:25:00,26.2,23.1,30.10,North,358,0.0,4.0,88,0.00,,---,0.00,VWS V14.01,2013-02-07 10:25:00,
2013-02-07 04:30:00,26.3,23.2,30.09,North,353,2.0,4.0,88,0.00,,---,0.00,VWS V14.01,2013-02-07 10:30:00,
2013-02-07 04:35:00,26.2,23.1,30.10,NNW,342,1.0,4.0,88,0.00,,---,0.00,VWS V14.01,2013-02-07 10:35:00,
2013-02-07 04:40:00,26.2,23.1,30.10,North,10,0.0,4.0,88,0.00,,---,0.00,VWS V14.01,2013-02-07 10:40:00,
2013-02-07 04:45:00,26.2,23.1,30.10,North,356,0.0,3.0,88,0.00,,---,0.00,VWS V14.01,2013-02-07 10:45:00,
2013-02-07 04:50:00,26.2,23.1,30.10,North,351,1.0,3.0,88,0.00,,---,0.00,VWS V14.01,2013-02-07 10:50:00,
2013-02-07 04:55:00,26.2,23.1,30.11,NNW,342,0.0,3.0,88,0.00,,---,0.00,VWS V14.01,2013-02-07 10:55:00,
2013-02-07 05:00:00,26.1,23.0,30.10,NE,36,2.0,6.0,88,0.00,,---,0.00,VWS V14.01,2013-02-07 11:00:00,
2013-02-07 05:05:00,26.1,23.0,30.10,NNW,338,0.0,6.0,88,0.00,,---,0.00,VWS V14.01,2013-02-07 11:05:00,
2013-02-07 05:10:00,26.1,23.0,30.10,North,356,2.0,6.0,88,0.00,,---,0.00,VWS V14.01,2013-02-07 11:10:00,
2013-02-07 05:15:00,26.0,22.9,30.11,NNW,333,0.0,3.0,88,0.00,,---,0.00,VWS V14.01,2013-02-07 11:15:00,
2013-02-07 05:20:00,26.0,22.9,30.11,North,351,1.0,4.0,88,0.00,,---,0.00,VWS V14.01,2013-02-07 11:20:00,
2013-02-07 05:25:00,26.0,22.9,30.11,NNW,337,2.0,4.0,88,0.00,,---,0.00,VWS V14.01,2013-02-07 11:25:00,
2013-02-07 05:30:00,26.0,22.9,30.11,North,351,2.0,4.0,88,0.00,,---,0.00,VWS V14.01,2013-02-07 11:30:00,
2013-02-07 05:35:00,25.9,22.8,30.11,NNE,33,2.0,5.0,88,0.00,,---,0.00,VWS V14.01,2013-02-07 11:35:00,
2013-02-07 05:40:00,25.9,22.8,30.11,NNW,342,0.0,7.0,88,0.00,,---,0.00,VWS V14.01,2013-02-07 11:40:00,
2013-02-07 05:45:00,25.9,22.8,30.10,NNW,346,1.0,4.0,88,0.00,,---,0.00,VWS V14.01,2013-02-07 11:45:00,
2013-02-07 05:50:00,25.7,22.6,30.10,NNW,347,1.0,4.0,88,0.00,,---,0.00,VWS V14.01,2013-02-07 11:50:00,
2013-02-07 05:55:00,25.6,22.5,30.10,North,2,1.0,4.0,88,0.00,,---,0.00,VWS V14.01,2013-02-07 11:55:00,
2013-02-07 06:00:00,25.4,22.4,30.10,NW,306,0.0,3.0,88,0.00,,---,0.00,VWS V14.01,2013-02-07 12:00:00,
2013-02-07 06:05:00,25.4,22.4,30.11,North,355,1.0,3.0,88,0.00,,---,0.00,VWS V14.01,2013-02-07 12:05:00,
2013-02-07 06:10:00,25.3,22.5,30.11,North,349,0.0,4.0,89,0.00,,---,0.00,VWS V14.01,2013-02-07 12:10:00,
2013-02-07 06:15:00,25.3,22.5,30.11,NNW,337,0.0,4.0,89,0.00,,---,0.00,VWS V14.01,2013-02-07 12:15:00,
2013-02-07 06:20:00,25.2,22.4,30.11,North,359,1.0,4.0,89,0.00,,---,0.00,VWS V14.01,2013-02-07 12:20:00,
2013-02-07 06:25:00,25.2,22.4,30.11,North,5,1.0,6.0,89,0.00,,---,0.00,VWS V14.01,2013-02-07 12:25:00,
2013-02-07 06:30:00,25.1,22.6,30.11,North,4,2.0,6.0,90,0.00,,---,0.00,VWS V14.01,2013-02-07 12:30:00,
2013-02-07 06:35:00,25.0,22.5,30.11,NNW,335,2.0,6.0,90,0.00,,---,0.00,VWS V14.01,2013-02-07 12:35:00,
2013-02-07 06:40:00,25.0,22.5,30.11,NE,38,4.0,6.0,90,0.00,,---,0.00,VWS V14.01,2013-02-07 12:40:00,
2013-02-07 06:45:00,25.0,22.5,30.11,NNW,345,2.0,8.0,90,0.00,,---,0.00,VWS V14.01,2013-02-07 12:45:00,
2013-02-07 06:50:00,24.9,22.6,30.11,NNE,29,2.0,8.0,91,0.00,,---,0.00,VWS V14.01,2013-02-07 12:50:00,
2013-02-07 06:55:00,24.9,22.6,30.11,North,350,1.0,8.0,91,0.00,,---,0.00,VWS V14.01,2013-02-07 12:55:00,
2013-02-07 07:00:00,24.9,22.6,30.11,North,351,0.0,4.0,91,0.00,,---,0.00,VWS V14.01,2013-02-07 13:00:00,
2013-02-07 07:05:00,24.8,22.5,30.11,NNE,26,0.0,6.0,91,0.00,,---,0.00,VWS V14.01,2013-02-07 13:05:00,
2013-02-07 07:10:00,24.9,22.6,30.11,NNE,12,3.0,6.0,91,0.00,,---,0.00,VWS V14.01,2013-02-07 13:10:00,
2013-02-07 07:15:00,24.8,22.8,30.11,North,6,4.0,5.0,92,0.00,,---,0.00,VWS V14.01,2013-02-07 13:15:00,
2013-02-07 07:20:00,24.8,22.8,30.11,NW,325,2.0,6.0,92,0.00,,---,0.00,VWS V14.01,2013-02-07 13:20:00,
2013-02-07 07:25:00,24.8,22.8,30.11,NW,321,1.0,6.0,92,0.00,,---,0.00,VWS V14.01,2013-02-07 13:25:00,
2013-02-07 07:30:00,24.8,22.8,30.11,North,2,1.0,5.0,92,0.00,,---,0.00,VWS V14.01,2013-02-07 13:30:00,
2013-02-07 07:35:00,24.9,22.9,30.12,NNE,33,1.0,5.0,92,0.00,,---,0.00,VWS V14.01,2013-02-07 13:35:00,
2013-02-07 07:40:00,24.8,22.8,30.12,NNW,327,1.0,5.0,92,0.00,,---,0.00,VWS V14.01,2013-02-07 13:40:00,
2013-02-07 07:45:00,24.8,22.8,30.12,NNE,19,0.0,2.0,92,0.00,,---,0.00,VWS V14.01,2013-02-07 13:45:00,
2013-02-07 07:50:00,24.9,22.9,30.13,WNW,298,1.0,2.0,92,0.00,,---,0.00,VWS V14.01,2013-02-07 13:50:00,
2013-02-07 07:55:00,24.9,22.9,30.13,NNW,341,0.0,2.0,92,0.00,,---,0.00,VWS V14.01,2013-02-07 13:55:00,
2013-02-07 08:00:00,24.9,23.2,30.13,North,355,0.0,2.0,93,0.00,,---,0.00,VWS V14.01,2013-02-07 14:00:00,
2013-02-07 08:05:00,24.9,23.2,30.14,NNW,333,0.0,3.0,93,0.00,,---,0.00,VWS V14.01,2013-02-07 14:05:00,
2013-02-07 08:10:00,24.9,23.2,30.14,NW,318,1.0,4.0,93,0.00,,---,0.00,VWS V14.01,2013-02-07 14:10:00,
2013-02-07 08:15:00,24.9,23.2,30.14,NNW,339,2.0,3.0,93,0.00,,---,0.00,VWS V14.01,2013-02-07 14:15:00,
2013-02-07 08:20:00,24.9,23.2,30.15,NNW,335,2.0,5.0,93,0.00,,---,0.00,VWS V14.01,2013-02-07 14:20:00,
2013-02-07 08:25:00,24.9,23.2,30.15,North,3,2.0,5.0,93,0.00,,---,0.00,VWS V14.01,2013-02-07 14:25:00,
2013-02-07 08:30:00,25.0,23.3,30.15,NNE,19,0.0,4.0,93,0.00,,---,0.00,VWS V14.01,2013-02-07 14:30:00,
2013-02-07 08:35:00,25.0,23.0,30.15,NNW,333,1.0,5.0,92,0.00,,---,0.00,VWS V14.01,2013-02-07 14:35:00,
2013-02-07 08:40:00,25.0,23.0,30.15,NNE,29,2.0,6.0,92,0.00,,---,0.00,VWS V14.01,2013-02-07 14:40:00,
2013-02-07 08:45:00,25.0,23.0,30.16,NNE,23,3.0,5.0,92,0.00,,---,0.00,VWS V14.01,2013-02-07 14:45:00,
2013-02-07 08:50:00,25.0,23.0,30.16,North,352,0.0,5.0,92,0.00,,---,0.00,VWS V14.01,2013-02-07 14:50:00,
2013-02-07 08:55:00,25.1,23.1,30.17,NNW,332,1.0,7.0,92,0.00,,---,0.00,VWS V14.01,2013-02-07 14:55:00,
2013-02-07 09:00:00,25.1,23.1,30.17,NW,326,2.0,5.0,92,0.00,,---,0.00,VWS V14.01,2013-02-07 15:00:00,
2013-02-07 09:05:00,25.1,23.1,30.16,NNW,335,1.0,8.0,92,0.00,,---,0.00,VWS V14.01,2013-02-07 15:05:00,
2013-02-07 09:10:00,25.0,23.0,30.17,North,353,2.0,8.0,92,0.00,,---,0.00,VWS V14.01,2013-02-07 15:10:00,
2013-02-07 09:15:00,25.0,23.0,30.16,North,351,0.0,6.0,92,0.00,,---,0.00,VWS V14.01,2013-02-07 15:15:00,
2013-02-07 09:20:00,25.0,23.0,30.16,NNW,348,1.0,6.0,92,0.00,,---,0.00,VWS V14.01,2013-02-07 15:20:00,
2013-02-07 09:25:00,25.0,23.0,30.16,North,349,0.0,7.0,92,0.00,,---,0.00,VWS V14.01,2013-02-07 15:25:00,
2013-02-07 09:30:00,24.9,22.9,30.17,North,353,1.0,8.0,92,0.00,,---,0.00,VWS V14.01,2013-02-07 15:30:00,
2013-02-07 09:35:00,24.9,22.9,30.17,NNE,31,3.0,8.0,92,0.00,,---,0.00,VWS V14.01,2013-02-07 15:35:00,
2013-02-07 09:40:00,25.0,23.0,30.17,NNW,329,0.0,8.0,92,0.00,,---,0.00,VWS V14.01,2013-02-07 15:40:00,
2013-02-07 09:45:00,25.0,23.0,30.17,NNE,19,1.0,5.0,92,0.00,,---,0.00,VWS V14.01,2013-02-07 15:45:00,
2013-02-07 09:50:00,25.0,23.0,30.17,NNE,26,3.0,5.0,92,0.00,,---,0.00,VWS V14.01,2013-02-07 15:50:00,
2013-02-07 09:55:00,24.9,22.9,30.17,NNW,328,2.0,5.0,92,0.00,,---,0.00,VWS V14.01,2013-02-07 15:55:00,
2013-02-07 10:00:00,25.0,23.0,30.17,NNE,31,3.0,6.0,92,0.00,,---,0.00,VWS V14.01,2013-02-07 16:00:00,
2013-02-07 10:05:00,24.9,22.9,30.17,NNW,339,1.0,6.0,92,0.00,,---,0.00,VWS V14.01,2013-02-07 16:05:00,
2013-02-07 10:10:00,24.9,22.9,30.17,North,351,0.0,6.0,92,0.00,,---,0.00,VWS V14.01,2013-02-07 16:10:00,
2013-02-07 10:15:00,24.9,22.9,30.18,NE,44,3.0,6.0,92,0.00,,---,0.00,VWS V14.01,2013-02-07 16:15:00,
2013-02-07 10:20:00,24.8,22.8,30.18,NNW,339,1.0,6.0,92,0.00,,---,0.00,VWS V14.01,2013-02-07 16:20:00,
2013-02-07 10:25:00,24.9,22.9,30.18,NNW,333,2.0,6.0,92,0.00,,---,0.00,VWS V14.01,2013-02-07 16:25:00,
2013-02-07 10:30:00,25.0,23.0,30.18,NNW,329,1.0,2.0,92,0.00,,---,0.00,VWS V14.01,2013-02-07 16:30:00,
2013-02-07 10:35:00,25.1,23.1,30.18,NNE,19,3.0,4.0,92,0.00,,---,0.00,VWS V14.01,2013-02-07 16:35:00,
2013-02-07 10:40:00,25.1,22.9,30.18,NNW,327,0.0,4.0,91,0.00,,---,0.00,VWS V14.01,2013-02-07 16:40:00,
2013-02-07 10:45:00,25.1,22.9,30.18,North,351,3.0,4.0,91,0.00,,---,0.00,VWS V14.01,2013-02-07 16:45:00,
2013-02-07 10:50:00,25.1,22.9,30.18,NW,322,1.0,4.0,91,0.00,,---,0.00,VWS V14.01,2013-02-07 16:50:00,
2013-02-07 10:55:00,25.1,22.9,30.18,NE,47,6.0,7.0,91,0.00,,---,0.00,VWS V14.01,2013-02-07 16:55:00,
2013-02-07 11:00:00,25.0,22.8,30.18,NNW,348,2.0,3.0,91,0.00,,---,0.00,VWS V14.01,2013-02-07 17:00:00,
2013-02-07 11:05:00,25.0,22.8,30.18,North,9,2.0,5.0,91,0.00,,---,0.00,VWS V14.01,2013-02-07 17:05:00,
2013-02-07 11:10:00,25.1,22.9,30.18,NNE,26,4.0,5.0,91,0.00,,---,0.00,VWS V14.01,2013-02-07 17:10:00,
2013-02-07 11:15:00,25.1,22.9,30.18,North,358,1.0,5.0,91,0.00,,---,0.00,VWS V14.01,2013-02-07 17:15:00,
2013-02-07 11:20:00,25.3,23.0,30.18,North,352,2.0,5.0,91,0.00,,---,0.00,VWS V14.01,2013-02-07 17:20:00,
2013-02-07 11:25:00,25.3,23.0,30.19,North,356,1.0,7.0,91,0.00,,---,0.00,VWS V14.01,2013-02-07 17:25:00,
2013-02-07 11:30:00,25.4,23.1,30.18,West,281,2.0,4.0,91,0.00,,---,0.00,VWS V14.01,2013-02-07 17:30:00,
2013-02-07 11:35:00,25.5,23.2,30.18,NNW,335,1.0,4.0,91,0.00,,---,0.00,VWS V14.01,2013-02-07 17:35:00,
2013-02-07 11:40:00,25.6,23.3,30.19,North,10,0.0,4.0,91,0.00,,---,0.00,VWS V14.01,2013-02-07 17:40:00,
2013-02-07 11:45:00,25.7,23.4,30.19,North,352,1.0,5.0,91,0.00,,---,0.00,VWS V14.01,2013-02-07 17:45:00,
2013-02-07 11:50:00,25.7,23.4,30.19,North,354,1.0,5.0,91,0.00,,---,0.00,VWS V14.01,2013-02-07 17:50:00,
2013-02-07 11:55:00,25.8,23.3,30.19,NW,313,2.0,5.0,90,0.00,,---,0.00,VWS V14.01,2013-02-07 17:55:00,
2013-02-07 12:00:00,25.9,23.4,30.19,NNE,30,1.0,3.0,90,0.00,,---,0.00,VWS V14.01,2013-02-07 18:00:00,
2013-02-07 12:05:00,25.9,23.4,30.19,NNW,329,3.0,4.0,90,0.00,,---,0.00,VWS V14.01,2013-02-07 18:05:00,
2013-02-07 12:10:00,26.0,23.2,30.18,North,353,1.0,4.0,89,0.00,,---,0.00,VWS V14.01,2013-02-07 18:10:00,
2013-02-07 12:15:00,26.1,23.3,30.18,NNW,341,2.0,8.0,89,0.00,,---,0.00,VWS V14.01,2013-02-07 18:15:00,
2013-02-07 12:20:00,26.1,23.0,30.18,North,351,2.0,8.0,88,0.00,,---,0.00,VWS V14.01,2013-02-07 18:20:00,
2013-02-07 12:25:00,26.1,23.0,30.18,NNE,20,5.0,8.0,88,0.00,,---,0.00,VWS V14.01,2013-02-07 18:25:00,
2013-02-07 12:30:00,26.1,22.8,30.18,North,355,2.0,4.0,87,0.00,,---,0.00,VWS V14.01,2013-02-07 18:30:00,
2013-02-07 12:34:00,26.2,22.9,30.18,North,352,2.0,5.0,87,0.00,,---,0.00,VWS V14.01,2013-02-07 18:34:00,
2013-02-07 12:39:00,26.2,22.6,30.18,NNW,345,2.0,8.0,86,0.00,,---,0.00,VWS V14.01,2013-02-07 18:39:00,
2013-02-07 12:44:00,26.3,22.7,30.18,NNE,31,2.0,4.0,86,0.00,,---,0.00,VWS V14.01,2013-02-07 18:44:00,
2013-02-07 12:49:00,26.4,22.8,30.18,NNE,26,1.0,5.0,86,0.00,,---,0.00,VWS V14.01,2013-02-07 18:49:00,
2013-02-07 12:54:00,26.4,22.8,30.18,NNE,14,1.0,9.0,86,0.00,,---,0.00,VWS V14.01,2013-02-07 18:54:00,
2013-02-07 13:00:00,26.3,22.7,30.18,NNW,339,2.0,7.0,86,0.00,,---,0.00,VWS V14.01,2013-02-07 19:00:00,
2013-02-07 13:05:00,26.2,22.6,30.18,NNW,348,3.0,9.0,86,0.00,,---,0.00,VWS V14.01,2013-02-07 19:05:00,
2013-02-07 13:10:00,26.3,22.7,30.18,North,355,1.0,9.0,86,0.00,,---,0.00,VWS V14.01,2013-02-07 19:10:00,
2013-02-07 13:15:00,26.2,22.9,30.17,North,9,2.0,5.0,87,0.00,,---,0.00,VWS V14.01,2013-02-07 19:15:00,
2013-02-07 13:19:00,26.1,22.8,30.17,NNW,329,2.0,7.0,87,0.00,,---,0.00,VWS V14.01,2013-02-07 19:19:00,
2013-02-07 13:25:00,26.1,22.8,30.17,North,8,2.0,7.0,87,0.00,,---,0.00,VWS V14.01,2013-02-07 19:25:00,
2013-02-07 13:30:00,26.2,23.1,30.17,NNW,330,1.0,10.0,88,0.00,,---,0.00,VWS V14.01,2013-02-07 19:30:00,
2013-02-07 13:35:00,26.1,23.0,30.17,North,6,1.0,10.0,88,0.00,,---,0.00,VWS V14.01,2013-02-07 19:35:00,
2013-02-07 13:40:00,26.1,23.0,30.17,NE,48,6.0,10.0,88,0.00,,---,0.00,VWS V14.01,2013-02-07 19:40:00,
2013-02-07 13:45:00,26.0,22.9,30.17,North,10,1.0,10.0,88,0.00,,---,0.00,VWS V14.01,2013-02-07 19:45:00,
2013-02-07 13:50:00,26.0,23.2,30.17,North,5,2.0,10.0,89,0.00,,---,0.00,VWS V14.01,2013-02-07 19:50:00,
2013-02-07 13:55:00,26.1,23.3,30.17,North,358,1.0,10.0,89,0.00,,---,0.00,VWS V14.01,2013-02-07 19:55:00,
2013-02-07 14:00:00,26.1,23.3,30.17,North,359,3.0,6.0,89,0.00,,---,0.00,VWS V14.01,2013-02-07 20:00:00,
2013-02-07 14:05:00,26.1,23.3,30.17,NNW,339,3.0,6.0,89,0.00,,---,0.00,VWS V14.01,2013-02-07 20:05:00,
2013-02-07 14:10:00,26.2,23.4,30.17,North,10,2.0,9.0,89,0.00,,---,0.00,VWS V14.01,2013-02-07 20:10:00,
2013-02-07 14:15:00,26.3,23.5,30.17,NNW,341,1.0,5.0,89,0.00,,---,0.00,VWS V14.01,2013-02-07 20:15:00,
2013-02-07 14:19:00,26.4,23.6,30.17,NNW,344,0.0,5.0,89,0.00,,---,0.00,VWS V14.01,2013-02-07 20:19:00,
2013-02-07 14:24:00,26.4,23.6,30.17,North,349,2.0,8.0,89,0.00,,---,0.00,VWS V14.01,2013-02-07 20:24:00,
2013-02-07 14:29:00,26.5,23.4,30.17,North,356,0.0,6.0,88,0.00,,---,0.00,VWS V14.01,2013-02-07 20:29:00,
2013-02-07 14:34:00,26.5,23.4,30.17,North,7,1.0,6.0,88,0.00,,---,0.00,VWS V14.01,2013-02-07 20:34:00,
2013-02-07 14:39:00,26.6,23.5,30.18,NNE,17,3.0,7.0,88,0.00,,---,0.00,VWS V14.01,2013-02-07 20:39:00,
2013-02-07 14:44:00,26.6,23.5,30.18,NNW,335,1.0,4.0,88,0.00,,---,0.00,VWS V14.01,2013-02-07 20:44:00,
2013-02-07 14:49:00,26.6,23.3,30.18,North,9,1.0,5.0,87,0.00,,---,0.00,VWS V14.01,2013-02-07 20:49:00,
2013-02-07 14:54:00,26.6,23.3,30.18,NE,36,1.0,5.0,87,0.00,,---,0.00,VWS V14.01,2013-02-07 20:54:00,
2013-02-07 14:59:00,26.7,23.4,30.18,NNE,16,6.0,8.0,87,0.00,,---,0.00,VWS V14.01,2013-02-07 20:59:00,
2013-02-07 15:04:00,26.7,23.1,30.19,NNW,348,2.0,8.0,86,0.00,,---,0.00,VWS V14.01,2013-02-07 21:04:00,
2013-02-07 15:09:00,26.8,23.2,30.19,NNE,29,1.0,8.0,86,0.00,,---,0.00,VWS V14.01,2013-02-07 21:09:00,
2013-02-07 15:14:00,26.9,23.3,30.19,NNE,17,0.0,5.0,86,0.00,,---,0.00,VWS V14.01,2013-02-07 21:14:00,
2013-02-07 15:19:00,27.0,23.1,30.19,NNW,335,0.0,5.0,85,0.00,,---,0.00,VWS V14.01,2013-02-07 21:19:00,
2013-02-07 15:24:00,27.0,23.1,30.19,NNE,20,3.0,5.0,85,0.00,,---,0.00,VWS V14.01,2013-02-07 21:24:00,
2013-02-07 15:29:00,27.0,22.8,30.19,NNW,333,1.0,3.0,84,0.00,,---,0.00,VWS V14.01,2013-02-07 21:29:00,
2013-02-07 15:34:00,27.1,22.9,30.19,NNW,342,4.0,10.0,84,0.00,,---,0.00,VWS V14.01,2013-02-07 21:34:00,
2013-02-07 15:39:00,27.0,22.5,30.20,NNW,344,0.0,11.0,83,0.00,,---,0.00,VWS V14.01,2013-02-07 21:39:00,
2013-02-07 15:44:00,27.0,22.5,30.20,NNE,29,4.0,6.0,83,0.00,,---,0.00,VWS V14.01,2013-02-07 21:44:00,
2013-02-07 15:49:00,27.1,22.6,30.20,NNE,14,2.0,6.0,83,0.00,,---,0.00,VWS V14.01,2013-02-07 21:49:00,
2013-02-07 15:54:00,27.1,22.4,30.20,North,349,1.0,7.0,82,0.00,,---,0.00,VWS V14.01,2013-02-07 21:54:00,
2013-02-07 15:59:00,27.2,22.4,30.20,NE,38,1.0,4.0,82,0.00,,---,0.00,VWS V14.01,2013-02-07 21:59:00,
2013-02-07 16:04:00,27.2,22.4,30.21,West,271,3.0,6.0,82,0.00,,---,0.00,VWS V14.01,2013-02-07 22:04:00,
2013-02-07 16:09:00,27.3,22.5,30.21,NW,307,3.0,6.0,82,0.00,,---,0.00,VWS V14.01,2013-02-07 22:09:00,
2013-02-07 16:14:00,27.3,22.5,30.21,North,351,1.0,3.0,82,0.00,,---,0.00,VWS V14.01,2013-02-07 22:14:00,
2013-02-07 16:19:00,27.3,22.5,30.21,NNW,339,1.0,5.0,82,0.00,,---,0.00,VWS V14.01,2013-02-07 22:19:00,
2013-02-07 16:24:00,27.3,22.5,30.22,NW,321,2.0,5.0,82,0.00,,---,0.00,VWS V14.01,2013-02-07 22:24:00,
2013-02-07 16:29:00,27.4,22.4,30.22,East,96,1.0,4.0,81,0.00,,---,0.00,VWS V14.01,2013-02-07 22:29:00,
2013-02-07 16:34:00,27.4,22.4,30.22,NW,318,1.0,4.0,81,0.00,,---,0.00,VWS V14.01,2013-02-07 22:34:00,
2013-02-07 16:39:00,27.4,22.4,30.22,North,355,2.0,6.0,81,0.00,,---,0.00,VWS V14.01,2013-02-07 22:39:00,
2013-02-07 16:44:00,27.4,22.4,30.22,NW,317,2.0,7.0,81,0.00,,---,0.00,VWS V14.01,2013-02-07 22:44:00,
2013-02-07 16:49:00,27.5,22.5,30.22,North,10,0.0,7.0,81,0.00,,---,0.00,VWS V14.01,2013-02-07 22:49:00,
2013-02-07 16:54:00,27.5,22.5,30.22,West,270,2.0,8.0,81,0.00,,---,0.00,VWS V14.01,2013-02-07 22:54:00,
2013-02-07 16:59:00,27.5,22.1,30.22,North,351,2.0,4.0,80,0.00,,---,0.00,VWS V14.01,2013-02-07 22:59:00,
2013-02-07 17:04:00,27.5,22.5,30.23,NNW,333,1.0,4.0,81,0.00,,---,0.00,VWS V14.01,2013-02-07 23:04:00,
2013-02-07 17:09:00,27.5,22.5,30.23,NW,326,1.0,5.0,81,0.00,,---,0.00,VWS V14.01,2013-02-07 23:09:00,
2013-02-07 17:14:00,27.4,22.4,30.23,NW,318,1.0,4.0,81,0.00,,---,0.00,VWS V14.01,2013-02-07 23:14:00,
2013-02-07 17:19:00,27.4,22.4,30.23,North,3,1.0,4.0,81,0.00,,---,0.00,VWS V14.01,2013-02-07 23:19:00,
2013-02-07 17:24:00,27.4,22.4,30.23,North,349,1.0,4.0,81,0.00,,---,0.00,VWS V14.01,2013-02-07 23:24:00,
2013-02-07 17:29:00,27.3,22.2,30.23,North,6,1.0,4.0,81,0.00,,---,0.00,VWS V14.01,2013-02-07 23:29:00,
2013-02-07 17:34:00,27.3,22.2,30.23,NNW,327,2.0,5.0,81,0.00,,---,0.00,VWS V14.01,2013-02-07 23:34:00,
2013-02-07 17:39:00,27.3,22.2,30.24,NNW,339,2.0,7.0,81,0.00,,---,0.00,VWS V14.01,2013-02-07 23:39:00,
2013-02-07 17:44:00,27.3,22.2,30.24,NNW,343,2.0,6.0,81,0.00,,---,0.00,VWS V14.01,2013-02-07 23:44:00,
2013-02-07 17:49:00,27.3,22.0,30.24,NNE,23,4.0,6.0,80,0.00,,---,0.00,VWS V14.01,2013-02-07 23:49:00,
2013-02-07 17:54:00,27.3,22.2,30.24,North,358,2.0,6.0,81,0.00,,---,0.00,VWS V14.01,2013-02-07 23:54:00,
2013-02-07 17:59:00,27.2,22.1,30.24,NNW,338,3.0,3.0,81,0.00,,---,0.00,VWS V14.01,2013-02-07 23:59:00,
2013-02-07 18:04:00,27.3,22.2,30.25,North,353,1.0,5.0,81,0.00,,---,0.00,VWS V14.01,2013-02-08 00:04:00,
2013-02-07 18:09:00,27.3,22.2,30.25,North,1,0.0,5.0,81,0.00,,---,0.00,VWS V14.01,2013-02-08 00:09:00,
2013-02-07 18:14:00,27.3,22.0,30.25,NNW,329,2.0,5.0,80,0.00,,---,0.00,VWS V14.01,2013-02-08 00:14:00,
2013-02-07 18:19:00,27.3,22.0,30.25,NNW,348,0.0,8.0,80,0.00,,---,0.00,VWS V14.01,2013-02-08 00:19:00,
2013-02-07 18:24:00,27.3,22.0,30.25,NW,325,1.0,8.0,80,0.00,,---,0.00,VWS V14.01,2013-02-08 00:24:00,
2013-02-07 18:29:00,27.3,22.0,30.26,NNE,29,4.0,8.0,80,0.00,,---,0.00,VWS V14.01,2013-02-08 00:29:00,
2013-02-07 18:34:00,27.3,22.0,30.25,North,5,2.0,8.0,80,0.00,,---,0.00,VWS V14.01,2013-02-08 00:34:00,
2013-02-07 18:39:00,27.2,21.9,30.26,NNE,19,5.0,9.0,80,0.00,,---,0.00,VWS V14.01,2013-02-08 00:39:00,
2013-02-07 18:44:00,27.2,21.6,30.26,North,5,2.0,4.0,79,0.00,,---,0.00,VWS V14.01,2013-02-08 00:44:00,
2013-02-07 18:49:00,27.1,21.5,30.26,North,6,1.0,5.0,79,0.00,,---,0.00,VWS V14.01,2013-02-08 00:49:00,
2013-02-07 18:54:00,27.1,21.8,30.26,NNW,342,1.0,5.0,80,0.00,,---,0.00,VWS V14.01,2013-02-08 00:54:00,
2013-02-07 18:59:00,27.1,21.8,30.26,North,349,1.0,4.0,80,0.00,,---,0.00,VWS V14.01,2013-02-08 00:59:00,
2013-02-07 19:04:00,27.0,21.7,30.27,NNW,348,1.0,4.0,80,0.00,,---,0.00,VWS V14.01,2013-02-08 01:04:00,
2013-02-07 19:09:00,27.0,21.7,30.27,North,351,1.0,5.0,80,0.00,,---,0.00,VWS V14.01,2013-02-08 01:09:00,
2013-02-07 19:14:00,26.9,21.6,30.27,North,349,1.0,4.0,80,0.00,,---,0.00,VWS V14.01,2013-02-08 01:14:00,
2013-02-07 19:19:00,26.9,21.6,30.27,NW,312,0.0,4.0,80,0.00,,---,0.00,VWS V14.01,2013-02-08 01:19:00,
2013-02-07 19:24:00,26.9,21.6,30.27,NNW,339,0.0,4.0,80,0.00,,---,0.00,VWS V14.01,2013-02-08 01:24:00,
2013-02-07 19:29:00,26.9,21.6,30.27,NNW,338,1.0,6.0,80,0.00,,---,0.00,VWS V14.01,2013-02-08 01:29:00,
2013-02-07 19:34:00,26.9,21.6,30.27,NNW,327,1.0,6.0,80,0.00,,---,0.00,VWS V14.01,2013-02-08 01:34:00,
2013-02-07 19:39:00,26.9,21.6,30.28,North,355,0.0,6.0,80,0.00,,---,0.00,VWS V14.01,2013-02-08 01:39:00,
2013-02-07 19:44:00,26.8,21.5,30.28,North,351,1.0,3.0,80,0.00,,---,0.00,VWS V14.01,2013-02-08 01:44:00,
2013-02-07 19:49:00,26.8,21.8,30.28,NNW,335,0.0,4.0,81,0.00,,---,0.00,VWS V14.01,2013-02-08 01:49:00,
2013-02-07 19:54:00,26.7,21.7,30.28,North,352,1.0,4.0,81,0.00,,---,0.00,VWS V14.01,2013-02-08 01:54:00,
2013-02-07 19:59:00,26.7,21.7,30.28,NNE,13,2.0,5.0,81,0.00,,---,0.00,VWS V14.01,2013-02-08 01:59:00,
2013-02-07 20:04:00,26.7,21.7,30.28,NNW,329,0.0,5.0,81,0.00,,---,0.00,VWS V14.01,2013-02-08 02:04:00,
2013-02-07 20:09:00,26.7,21.7,30.28,NW,326,1.0,6.0,81,0.00,,---,0.00,VWS V14.01,2013-02-08 02:09:00,
2013-02-07 20:14:00,26.7,21.7,30.28,North,7,1.0,5.0,81,0.00,,---,0.00,VWS V14.01,2013-02-08 02:14:00,
2013-02-07 20:19:00,26.7,21.7,30.28,NNW,329,1.0,5.0,81,0.00,,---,0.00,VWS V14.01,2013-02-08 02:19:00,
2013-02-07 20:24:00,26.7,21.7,30.28,NNW,327,1.0,5.0,81,0.00,,---,0.00,VWS V14.01,2013-02-08 02:24:00,
2013-02-07 20:29:00,26.7,21.7,30.28,North,2,0.0,2.0,81,0.00,,---,0.00,VWS V14.01,2013-02-08 02:29:00,
2013-02-07 20:34:00,26.7,21.7,30.28,NW,306,1.0,2.0,81,0.00,,---,0.00,VWS V14.01,2013-02-08 02:34:00,
2013-02-07 20:39:00,26.6,21.6,30.28,North,354,1.0,3.0,81,0.00,,---,0.00,VWS V14.01,2013-02-08 02:39:00,
2013-02-07 20:44:00,26.6,21.6,30.29,NNW,327,1.0,3.0,81,0.00,,---,0.00,VWS V14.01,2013-02-08 02:44:00,
2013-02-07 20:49:00,26.7,21.7,30.29,NNE,13,1.0,4.0,81,0.00,,---,0.00,VWS V14.01,2013-02-08 02:49:00,
2013-02-07 20:54:00,26.7,21.7,30.29,NNE,12,2.0,4.0,81,0.00,,---,0.00,VWS V14.01,2013-02-08 02:54:00,
2013-02-07 20:59:00,26.7,21.7,30.29,NNW,335,1.0,6.0,81,0.00,,---,0.00,VWS V14.01,2013-02-08 02:59:00,
2013-02-07 21:04:00,26.7,21.7,30.29,North,11,1.0,10.0,81,0.00,,---,0.00,VWS V14.01,2013-02-08 03:04:00,
2013-02-07 21:09:00,26.7,21.7,30.29,NNE,14,1.0,10.0,81,0.00,,---,0.00,VWS V14.01,2013-02-08 03:09:00,
2013-02-07 21:14:00,26.8,21.8,30.29,NNW,339,0.0,4.0,81,0.00,,---,0.00,VWS V14.01,2013-02-08 03:14:00,
2013-02-07 21:19:00,26.7,21.7,30.29,NNW,347,4.0,5.0,81,0.00,,---,0.00,VWS V14.01,2013-02-08 03:19:00,
2013-02-07 21:24:00,26.8,21.8,30.30,WNW,287,2.0,5.0,81,0.00,,---,0.00,VWS V14.01,2013-02-08 03:24:00,
2013-02-07 21:29:00,26.8,21.8,30.30,NNE,22,1.0,4.0,81,0.00,,---,0.00,VWS V14.01,2013-02-08 03:29:00,
2013-02-07 21:34:00,26.7,21.7,30.30,North,360,2.0,5.0,81,0.00,,---,0.00,VWS V14.01,2013-02-08 03:34:00,
2013-02-07 21:39:00,26.7,21.7,30.30,North,359,0.0,5.0,81,0.00,,---,0.00,VWS V14.01,2013-02-08 03:39:00,
2013-02-07 21:44:00,26.7,21.7,30.30,WNW,291,1.0,2.0,81,0.00,,---,0.00,VWS V14.01,2013-02-08 03:44:00,
2013-02-07 21:49:00,26.6,21.9,30.31,NNW,329,1.0,2.0,82,0.00,,---,0.00,VWS V14.01,2013-02-08 03:49:00,
2013-02-07 21:54:00,26.6,21.9,30.30,NNW,341,1.0,4.0,82,0.00,,---,0.00,VWS V14.01,2013-02-08 03:54:00,
2013-02-07 21:59:00,26.5,21.8,30.30,NNW,348,1.0,2.0,82,0.00,,---,0.00,VWS V14.01,2013-02-08 03:59:00,
2013-02-07 22:04:00,26.5,22.0,30.31,North,360,1.0,5.0,83,0.00,,---,0.00,VWS V14.01,2013-02-08 04:04:00,
2013-02-07 22:09:00,26.4,22.0,30.31,North,352,0.0,5.0,83,0.00,,---,0.00,VWS V14.01,2013-02-08 04:09:00,
2013-02-07 22:14:00,26.4,22.0,30.30,West,273,0.0,1.0,83,0.00,,---,0.00,VWS V14.01,2013-02-08 04:14:00,
2013-02-07 22:19:00,26.3,21.9,30.31,North,360,0.0,3.0,83,0.00,,---,0.00,VWS V14.01,2013-02-08 04:19:00,
2013-02-07 22:24:00,26.3,21.9,30.31,NW,312,0.0,3.0,83,0.00,,---,0.00,VWS V14.01,2013-02-08 04:24:00,
2013-02-07 22:29:00,26.3,21.9,30.31,NNW,345,0.0,2.0,83,0.00,,---,0.00,VWS V14.01,2013-02-08 04:29:00,
2013-02-07 22:34:00,26.3,21.9,30.31,NNW,337,0.0,4.0,83,0.00,,---,0.00,VWS V14.01,2013-02-08 04:34:00,
2013-02-07 22:39:00,26.3,21.9,30.32,NNW,345,1.0,5.0,83,0.00,,---,0.00,VWS V14.01,2013-02-08 04:39:00,
2013-02-07 22:44:00,26.2,21.8,30.32,NNW,343,1.0,1.0,83,0.00,,---,0.00,VWS V14.01,2013-02-08 04:44:00,
2013-02-07 22:49:00,26.2,21.8,30.32,North,351,0.0,3.0,83,0.00,,---,0.00,VWS V14.01,2013-02-08 04:49:00,
2013-02-07 22:54:00,26.1,21.9,30.32,NNW,335,1.0,3.0,84,0.00,,---,0.00,VWS V14.01,2013-02-08 04:54:00,
2013-02-07 22:59:00,26.1,21.9,30.32,NNW,339,1.0,1.0,84,0.00,,---,0.00,VWS V14.01,2013-02-08 04:59:00,
2013-02-07 23:00:00,26.1,21.9,30.32,NNW,346,3.0,4.0,84,0.00,,---,0.00,VWS V14.01,2013-02-08 05:00:00,
2013-02-07 23:01:00,26.0,21.8,30.32,NNW,341,1.0,4.0,84,0.00,,---,0.00,VWS V14.01,2013-02-08 05:01:00,
2013-02-07 23:06:00,25.9,21.7,30.33,North,2,2.0,4.0,84,0.00,,---,0.00,VWS V14.01,2013-02-08 05:06:00,
2013-02-07 23:11:00,25.9,22.0,30.32,NNW,348,0.0,6.0,85,0.00,,---,0.00,VWS V14.01,2013-02-08 05:11:00,
2013-02-07 23:16:00,25.9,22.0,30.32,NW,320,1.0,4.0,85,0.00,,---,0.00,VWS V14.01,2013-02-08 05:16:00,
2013-02-07 23:21:00,25.9,22.0,30.32,North,351,1.0,4.0,85,0.00,,---,0.00,VWS V14.01,2013-02-08 05:21:00,
2013-02-07 23:26:00,25.8,21.9,30.32,NNW,345,0.0,4.0,85,0.00,,---,0.00,VWS V14.01,2013-02-08 05:26:00,
2013-02-07 23:31:00,25.8,21.9,30.32,NNW,332,1.0,1.0,85,0.00,,---,0.00,VWS V14.01,2013-02-08 05:31:00,
2013-02-07 23:36:00,25.7,21.8,30.32,North,3,0.0,2.0,85,0.00,,---,0.00,VWS V14.01,2013-02-08 05:36:00,
2013-02-07 23:41:00,25.7,21.8,30.32,WNW,299,0.0,2.0,85,0.00,,---,0.00,VWS V14.01,2013-02-08 05:41:00,
2013-02-07 23:46:00,25.7,21.8,30.32,North,352,1.0,5.0,85,0.00,,---,0.00,VWS V14.01,2013-02-08 05:46:00,
2013-02-07 23:51:00,25.7,21.8,30.32,NNW,332,1.0,5.0,85,0.00,,---,0.00,VWS V14.01,2013-02-08 05:51:00,
2013-02-07 23:56:00,25.7,21.8,30.32,NNW,348,1.0,6.0,85,0.00,,---,0.00,VWS V14.01,2013-02-08 05:56:00,